• Join FlightAware (Why Join?)
  • Login
  • US Flag 
06:51AM EST


 

Airport Tracker/Info


-or-


 

Live Flight TrackerFlight Track Log ✈ EJA396 ✈ 11-Dec-2013 ✈ KLAS - KPSP

Flight Track Log - Related Links

Times and Time Zones

All times are in EST time to prevent confusion due to time zone crossing. See the EJA396 flight status page for this flight to view local times or setup timezone preferences in your user account.

Time Position Orientation Groundspeed Altitude Reporting Facility
EST Latitude Longitude Course Direction KTS MPH feet Rate Location/Type
02:16PM 36.0639 -115.1722 209° Southwest 218 251 3,400  Level Los Angeles Center
02:16PM 36.0133 -115.2075 209° Southwest 257 296 6,100 1,680 Climbing Los Angeles Center
02:17PM 35.9778 -115.2842 240° Southwest 282 325 6,400 1,020 Climbing Los Angeles Center
02:18PM 35.9017 -115.3106 196° South 273 314 8,100 1,740 Climbing Los Angeles Center
02:18PM 35.8992 -115.3097 165° South 275 316 8,200 2,280 Climbing Los Angeles Center
02:19PM 35.8206 -115.3111 181° South 283 326 10,700 2,400 Climbing Los Angeles Center
02:21PM 35.7308 -115.3008 175° South 323 372 13,200 2,340 Climbing Los Angeles Center
02:22PM 35.6369 -115.2936 176° South 344 396 15,600 2,400 Climbing Los Angeles Center
02:23PM 35.5158 -115.3000 182° South 358 412 18,200 2,400 Climbing Los Angeles Center
02:24PM 35.4133 -115.3039 182° South 366 421 20,700 2,340 Climbing Los Angeles Center
02:25PM 35.3086 -115.3089 182° South 374 430 23,100 2,100 Climbing Los Angeles Center
02:26PM 35.1981 -115.3136 182° South 393 452 25,100 1,800 Climbing Los Angeles Center
02:27PM 35.0925 -115.3161 181° South 401 461 26,900 900 Climbing Los Angeles Center
02:28PM 34.9478 -115.3214 182° South 424 488 27,000  Climbing Los Angeles Center
02:29PM 34.8136 -115.3269 182° South 447 514 27,000  Level Los Angeles Center
02:30PM 34.6933 -115.3689 196° South 449 517 27,000  Level Los Angeles Center
02:31PM 34.5997 -115.4092 200° South 415 478 27,000  Level Los Angeles Center
02:32PM 34.4778 -115.4619 200° South 390 449 27,000  Level Los Angeles Center
02:33PM 34.3769 -115.4342 167° South 376 433 27,000 -480 Level Los Angeles Center
02:34PM 34.2794 -115.3917 160° South 373 429 26,100 -1,260 Descending Los Angeles Center
02:35PM 34.1883 -115.3492 159° South 359 413 24,400 -1,860 Descending Los Angeles Center
02:36PM 34.1175 -115.4172 219° Southwest 353 406 22,300 -2,460 Descending Los Angeles Center
02:37PM 34.0653 -115.5458 244° Southwest 356 410 19,300 -2,580 Descending Los Angeles Center
02:38PM 34.0233 -115.6483 244° Southwest 348 400 17,000 -2,340 Descending Los Angeles Center
02:39PM 33.9822 -115.7461 243° Southwest 334 384 14,500 -2,460 Descending Los Angeles Center
02:40PM 33.9475 -115.8369 245° Southwest 316 364 12,000 -2,460 Descending Los Angeles Center
02:41PM 33.9142 -115.9225 245° Southwest 299 344 9,500 -2,400 Descending Los Angeles Center
02:42PM 33.8736 -116.0203 243° Southwest 285 328 7,000 -1,200 Descending Los Angeles Center
02:43PM 33.8378 -116.1003 242° Southwest 278 320 7,000  Level Los Angeles Center
02:44PM 33.8042 -116.1817 244° Southwest 276 318 7,000 -300 Level Los Angeles Center
02:45PM 33.7711 -116.2617 244° Southwest 267 307 6,500 -1,320 Descending Los Angeles Center
02:47PM 33.7333 -116.3667 247° West 202 232 3,600 -1,500 Descending Southern California TRACON
02:48PM 33.7667 -116.4167 309° West 158 182 2,600 -1,020 Descending Southern California TRACON
02:49PM 33.7833 -116.4500 301° West 140 161 1,600 -900 Descending Southern California TRACON
02:50PM 33.8000 -116.4833 301° West 126 145 900 -720 Descending Southern California TRACON
02:52PM 33.8167 -116.5000 307° West  Level FlightAware Approximate
02:59PM 33.8297 -116.5067 307° West  Level Estimated
03:00PM 33.8297 -116.5067 307° West  Level Estimated